Tracking 28790 objects as of 18-Apr-2024
HD Live streaming from Space Station
objects crossing your sky now

NOAA 16 DEB

Track NOAA 16 DEB now!
10-day predictions


NORAD ID: 42406
Int'l Code: 2000-055TA
Perigee: 829.4 km
Apogee: 856.1 km
Inclination: 98.7 °
Period: 101.6 minutes
Semi major axis: 7213 km
RCS: Unknown
Launch date: September 21, 2000
Source: United States (US)
Launch site: AIR FORCE WESTERN TEST RANGE (AFWTR)

Note: This is SATELLITE DEBRIS
Your satellite tracking list
Your tracking list is empty




NASA's NSSDC Master Catalog

Two Line Element Set (TLE):
1 42406U 00055TA  24108.97425548  .00002947  00000-0  14856-2 0  9993
2 42406  98.6547 176.1185 0018515  78.0206 282.3043 14.16968709416957
Source of the keplerian elements: AFSPC